CES6282 ZLLL-ZSAM

Flight info

Callsign CES6282
Flight time 2h 45m
Altitude 37100
Route UKBIN8W UKBIN W214 HO W154 XODAS DCT ZNX DCT PIKEM DCT TOGOG V111 DSY DCT RUXIL DCT WTM B213 WHA R343 SAGUD W50 XSH W105 NCH DCT LEKUV DCT TEBON TEBON8X
Aircraft A320/M-SDE3FGHIRWY/LB1

Departure

Time 2026-04-23 23:55
Airport Lanzhou Zhongchuan International Airport (ZLLL)

Arrival

Time 2026-04-24 02:40
Airport Xiamen Gaoqi International Airport (ZSAM)
Time Latitude Longitude Altitude Speed Heading
2026-04-23 23:28 36.52604 103.63604 6402 ft 0 kts 110°
2026-04-23 23:42 36.52604 103.63603 6402 ft 0 kts 110°
2026-04-23 23:43 36.52604 103.63600 6402 ft 2 kts 110°
2026-04-23 23:43 36.52610 103.63583 6402 ft 2 kts 110°
2026-04-23 23:43 36.52615 103.63564 6402 ft 2 kts 110°
2026-04-23 23:43 36.52620 103.63547 6402 ft 2 kts 110°
2026-04-23 23:44 36.52623 103.63535 6402 ft 1 kts 110°
2026-04-23 23:44 36.52628 103.63519 6402 ft 2 kts 104°
2026-04-23 23:44 36.52631 103.63500 6402 ft 2 kts 100°
2026-04-23 23:44 36.52633 103.63482 6402 ft 2 kts 95°
2026-04-23 23:45 36.52634 103.63464 6402 ft 2 kts 90°
2026-04-23 23:45 36.52634 103.63454 6402 ft 1 kts 87°
2026-04-23 23:45 36.52634 103.63452 6402 ft 0 kts 86°
2026-04-23 23:47 36.52634 103.63453 6402 ft 0 kts 86°
2026-04-23 23:47 36.52640 103.63472 6402 ft 4 kts 52°
2026-04-23 23:48 36.52683 103.63506 6402 ft 10 kts 20°
2026-04-23 23:48 36.52776 103.63522 6402 ft 16 kts 358°
2026-04-23 23:48 36.52911 103.63512 6402 ft 21 kts 357°
2026-04-23 23:48 36.52970 103.63601 6402 ft 16 kts 85°
2026-04-23 23:49 36.52987 103.63989 6402 ft 26 kts 87°
2026-04-23 23:49 36.52972 103.64178 6402 ft 20 kts 148°
2026-04-23 23:49 36.52827 103.64195 6402 ft 23 kts 177°
2026-04-23 23:50 36.52652 103.64206 6402 ft 27 kts 177°
2026-04-23 23:50 36.52450 103.64220 6402 ft 30 kts 177°
2026-04-23 23:50 36.52223 103.64234 6402 ft 33 kts 177°
2026-04-23 23:50 36.51992 103.64249 6402 ft 33 kts 177°
2026-04-23 23:51 36.51759 103.64264 6402 ft 33 kts 177°
2026-04-23 23:51 36.51523 103.64279 6402 ft 33 kts 177°
2026-04-23 23:51 36.51291 103.64294 6401 ft 33 kts 177°
2026-04-23 23:51 36.51058 103.64309 6401 ft 33 kts 177°
2026-04-23 23:52 36.50825 103.64324 6401 ft 33 kts 177°
2026-04-23 23:52 36.50590 103.64339 6401 ft 33 kts 177°
2026-04-23 23:52 36.50405 103.64355 6401 ft 19 kts 166°
2026-04-23 23:52 36.50368 103.64468 6401 ft 6 kts 87°
2026-04-23 23:53 36.50369 103.64477 6401 ft 4 kts 86°
2026-04-23 23:53 36.50373 103.64565 6401 ft 15 kts 86°
2026-04-23 23:53 36.50426 103.64645 6401 ft 11 kts 356°
2026-04-23 23:53 36.50431 103.64644 6401 ft 0 kts 356°
2026-04-23 23:54 36.50549 103.64635 6401 ft 49 kts 358°
2026-04-23 23:54 36.51122 103.64599 6402 ft 115 kts 358°
2026-04-23 23:54 36.52117 103.64536 6403 ft 169 kts 357°
2026-04-23 23:54 36.53340 103.64462 6871 ft 177 kts 356°
2026-04-23 23:55 36.54563 103.64336 7502 ft 179 kts 346°
2026-04-23 23:55 36.55769 103.63963 8183 ft 178 kts 354°
2026-04-23 23:55 36.56982 103.64314 8479 ft 192 kts 31°
2026-04-23 23:55 36.58033 103.65441 8745 ft 208 kts 41°
2026-04-23 23:56 36.59149 103.66676 9027 ft 223 kts 37°
2026-04-23 23:56 36.60439 103.67869 9256 ft 241 kts 32°
2026-04-23 23:56 36.61902 103.69038 9551 ft 258 kts 28°
2026-04-23 23:56 36.63469 103.70194 10103 ft 265 kts 27°
2026-04-23 23:57 36.65077 103.71346 10798 ft 267 kts 26°
2026-04-23 23:57 36.66669 103.72474 11497 ft 268 kts 26°
2026-04-23 23:57 36.68145 103.73907 12132 ft 277 kts 50°
2026-04-23 23:57 36.68927 103.76116 12777 ft 288 kts 78°
2026-04-23 23:58 36.68773 103.78632 13414 ft 298 kts 108°
2026-04-23 23:58 36.67688 103.80808 14029 ft 304 kts 131°
2026-04-23 23:58 36.66235 103.82748 14444 ft 315 kts 131°
2026-04-23 23:58 36.64704 103.84795 14728 ft 331 kts 131°
2026-04-23 23:59 36.63111 103.86905 15199 ft 339 kts 134°
2026-04-23 23:59 36.61221 103.88621 15745 ft 344 kts 156°
2026-04-23 23:59 36.58928 103.89378 16325 ft 344 kts 178°
2026-04-23 23:59 36.56568 103.89451 16885 ft 346 kts 184°
2026-04-24 00:00 36.54153 103.89418 17437 ft 350 kts 182°
2026-04-24 00:00 36.51717 103.89458 17979 ft 353 kts 181°
2026-04-24 00:00 36.49220 103.89578 18509 ft 358 kts 180°
2026-04-24 00:00 36.46740 103.89730 18950 ft 364 kts 180°
2026-04-24 00:01 36.44151 103.89883 19192 ft 377 kts 180°
2026-04-24 00:01 36.41511 103.90037 19409 ft 389 kts 180°
2026-04-24 00:01 36.38766 103.90198 19777 ft 395 kts 180°
2026-04-24 00:01 36.36017 103.90361 20270 ft 398 kts 180°
2026-04-24 00:02 36.33241 103.90526 20763 ft 400 kts 180°
2026-04-24 00:02 36.30447 103.90752 21223 ft 405 kts 174°
2026-04-24 00:02 36.27806 103.91866 21633 ft 413 kts 149°
2026-04-24 00:02 36.25663 103.94202 22089 ft 413 kts 124°
2026-04-24 00:03 36.24404 103.97381 22514 ft 409 kts 101°
2026-04-24 00:03 36.24011 104.00832 22929 ft 407 kts 89°
2026-04-24 00:03 36.23826 104.04311 23324 ft 411 kts 90°
2026-04-24 00:03 36.23555 104.07875 23707 ft 417 kts 92°
2026-04-24 00:04 36.23167 104.11443 24156 ft 421 kts 95°
2026-04-24 00:04 36.22698 104.15009 24597 ft 424 kts 96°
2026-04-24 00:04 36.22179 104.18617 25014 ft 427 kts 96°
2026-04-24 00:04 36.21642 104.22224 25413 ft 430 kts 96°
2026-04-24 00:05 36.21096 104.25866 25786 ft 433 kts 96°
2026-04-24 00:05 36.20551 104.29498 26155 ft 436 kts 96°
2026-04-24 00:05 36.19859 104.33165 26534 ft 441 kts 104°
2026-04-24 00:05 36.18753 104.36744 26913 ft 446 kts 112°
2026-04-24 00:06 36.17290 104.40116 27279 ft 450 kts 118°
2026-04-24 00:06 36.15685 104.43452 27634 ft 452 kts 119°
2026-04-24 00:06 36.14061 104.46764 27967 ft 455 kts 119°
2026-04-24 00:06 36.12433 104.50095 28314 ft 457 kts 119°
2026-04-24 00:07 36.10825 104.53416 28644 ft 459 kts 119°
2026-04-24 00:07 36.09231 104.56721 28955 ft 461 kts 118°
2026-04-24 00:07 36.07642 104.60023 29259 ft 463 kts 118°
2026-04-24 00:07 36.05994 104.63456 29561 ft 465 kts 118°
2026-04-24 00:08 36.04345 104.66888 29879 ft 466 kts 119°
2026-04-24 00:08 36.02692 104.70326 30158 ft 468 kts 119°
2026-04-24 00:08 36.01036 104.73768 30441 ft 469 kts 120°
2026-04-24 00:08 35.99364 104.77234 30671 ft 472 kts 119°
2026-04-24 00:09 35.97695 104.80688 30895 ft 473 kts 119°
2026-04-24 00:09 35.96006 104.84185 31114 ft 475 kts 119°
2026-04-24 00:09 35.94318 104.87673 31325 ft 477 kts 119°
2026-04-24 00:09 35.92617 104.91187 31546 ft 478 kts 119°
2026-04-24 00:10 35.90905 104.94717 31766 ft 479 kts 119°
2026-04-24 00:10 35.89195 104.98246 31978 ft 480 kts 118°
2026-04-24 00:10 35.87499 105.01766 32177 ft 482 kts 118°
2026-04-24 00:10 35.85796 105.05306 32350 ft 483 kts 118°
2026-04-24 00:11 35.84069 105.08892 32547 ft 484 kts 118°
2026-04-24 00:11 35.82341 105.12476 32737 ft 485 kts 118°
2026-04-24 00:11 35.80636 105.16006 32982 ft 484 kts 118°
2026-04-24 00:11 35.78928 105.19536 33235 ft 483 kts 118°
2026-04-24 00:12 35.77191 105.23122 33452 ft 483 kts 118°
2026-04-24 00:12 35.75475 105.26660 33662 ft 483 kts 118°
2026-04-24 00:12 35.73772 105.30168 33840 ft 484 kts 118°
2026-04-24 00:12 35.72040 105.33735 34014 ft 485 kts 118°
2026-04-24 00:13 35.70298 105.37315 34181 ft 486 kts 118°
2026-04-24 00:13 35.68577 105.40848 34350 ft 487 kts 118°
2026-04-24 00:13 35.66841 105.44410 34496 ft 487 kts 118°
2026-04-24 00:13 35.65092 105.47995 34638 ft 488 kts 118°
2026-04-24 00:14 35.63358 105.51544 34770 ft 489 kts 118°
2026-04-24 00:14 35.61597 105.55145 34903 ft 490 kts 118°
2026-04-24 00:14 35.59853 105.58707 35009 ft 491 kts 118°
2026-04-24 00:14 35.58102 105.62278 35143 ft 490 kts 118°
2026-04-24 00:15 35.56444 105.65924 35272 ft 490 kts 115°
2026-04-24 00:15 35.54971 105.69677 35289 ft 492 kts 111°
2026-04-24 00:15 35.52618 105.77548 35304 ft 489 kts 103°
2026-04-24 00:16 35.51110 105.85626 35306 ft 487 kts 97°
2026-04-24 00:16 35.49925 105.93768 35303 ft 486 kts 97°
2026-04-24 00:17 35.48724 106.01918 35303 ft 487 kts 97°
2026-04-24 00:17 35.47498 106.10080 35308 ft 488 kts 97°
2026-04-24 00:18 35.46264 106.18211 35312 ft 488 kts 97°
2026-04-24 00:18 35.45020 106.26372 35313 ft 488 kts 97°
2026-04-24 00:19 35.43772 106.34520 35312 ft 489 kts 97°
2026-04-24 00:19 35.42516 106.42668 35299 ft 489 kts 98°
2026-04-24 00:20 35.41253 106.50823 35293 ft 489 kts 97°
2026-04-24 00:20 35.39979 106.59017 35282 ft 489 kts 97°
2026-04-24 00:21 35.38708 106.67149 35271 ft 490 kts 98°
2026-04-24 00:21 35.37427 106.75317 35262 ft 490 kts 98°
2026-04-24 00:22 35.36138 106.83495 35252 ft 491 kts 98°
2026-04-24 00:22 35.34837 106.91699 35246 ft 491 kts 99°
2026-04-24 00:23 35.33540 106.99859 35250 ft 491 kts 98°
2026-04-24 00:23 35.32241 107.08054 35244 ft 492 kts 98°
2026-04-24 00:24 35.30937 107.16231 35233 ft 492 kts 98°
2026-04-24 00:24 35.29618 107.24462 35222 ft 491 kts 98°
2026-04-24 00:25 35.28300 107.32638 35222 ft 491 kts 98°
2026-04-24 00:25 35.26982 107.40776 35210 ft 491 kts 99°
2026-04-24 00:26 35.25658 107.48916 35206 ft 491 kts 99°
2026-04-24 00:26 35.24309 107.57110 35199 ft 492 kts 99°
2026-04-24 00:27 35.22937 107.65293 35191 ft 492 kts 100°
2026-04-24 00:27 35.20946 107.73287 35182 ft 494 kts 111°
2026-04-24 00:28 35.17828 107.80599 35179 ft 494 kts 123°
2026-04-24 00:28 35.13625 107.87198 35176 ft 494 kts 132°
2026-04-24 00:29 35.09017 107.93449 35171 ft 493 kts 133°
2026-04-24 00:29 35.04474 107.99646 35167 ft 493 kts 132°
2026-04-24 00:30 34.99903 108.05937 35167 ft 494 kts 132°
2026-04-24 00:30 34.95246 108.12026 35165 ft 493 kts 138°
2026-04-24 00:31 34.89865 108.17095 35160 ft 488 kts 150°
2026-04-24 00:31 34.83834 108.20843 35159 ft 484 kts 161°
2026-04-24 00:32 34.77520 108.23491 35166 ft 482 kts 165°
2026-04-24 00:32 34.71134 108.26041 35167 ft 482 kts 165°
2026-04-24 00:33 34.64805 108.28600 35168 ft 482 kts 165°
2026-04-24 00:33 34.58418 108.31202 35167 ft 482 kts 165°
2026-04-24 00:34 34.52086 108.33778 35157 ft 482 kts 165°
2026-04-24 00:34 34.45755 108.36353 35162 ft 481 kts 165°
2026-04-24 00:35 34.39405 108.38933 35149 ft 481 kts 165°
2026-04-24 00:35 34.33077 108.41496 35148 ft 481 kts 165°
2026-04-24 00:36 34.26736 108.44061 35148 ft 481 kts 165°
2026-04-24 00:36 34.20395 108.46621 35150 ft 481 kts 165°
2026-04-24 00:37 34.14040 108.49193 35171 ft 481 kts 163°
2026-04-24 00:37 34.07851 108.52293 35178 ft 484 kts 156°
2026-04-24 00:38 34.01854 108.55883 35202 ft 483 kts 156°
2026-04-24 00:38 33.95834 108.59496 35199 ft 483 kts 156°
2026-04-24 00:39 33.89826 108.63081 35203 ft 484 kts 156°
2026-04-24 00:39 33.83808 108.66665 35202 ft 483 kts 157°
2026-04-24 00:40 33.77791 108.70239 35214 ft 483 kts 157°
2026-04-24 00:40 33.71748 108.73820 35222 ft 482 kts 157°
2026-04-24 00:41 33.65770 108.77359 35215 ft 481 kts 158°
2026-04-24 00:41 33.59802 108.80952 35198 ft 483 kts 153°
2026-04-24 00:42 33.54549 108.86007 35190 ft 490 kts 134°
2026-04-24 00:42 33.50807 108.92826 35181 ft 495 kts 114°
2026-04-24 00:43 33.48928 109.00739 35186 ft 495 kts 99°
2026-04-24 00:43 33.47845 109.08888 35193 ft 495 kts 98°
2026-04-24 00:44 33.46745 109.16967 35202 ft 495 kts 99°
2026-04-24 00:44 33.45586 109.25062 35214 ft 495 kts 99°
2026-04-24 00:45 33.44403 109.33157 35217 ft 495 kts 99°
2026-04-24 00:45 33.43219 109.41219 35205 ft 496 kts 99°
2026-04-24 00:46 33.42024 109.49313 35195 ft 496 kts 99°
2026-04-24 00:46 33.40822 109.57426 35187 ft 497 kts 99°
2026-04-24 00:47 33.39608 109.65558 35184 ft 497 kts 100°
2026-04-24 00:47 33.38028 109.73599 35180 ft 496 kts 109°
2026-04-24 00:48 33.35303 109.81109 35178 ft 494 kts 121°
2026-04-24 00:48 33.31489 109.87857 35174 ft 490 kts 132°
2026-04-24 00:49 33.27135 109.94090 35172 ft 489 kts 133°
2026-04-24 00:49 33.22745 110.00327 35167 ft 490 kts 133°
2026-04-24 00:50 33.18399 110.06546 35164 ft 492 kts 133°
2026-04-24 00:50 33.14028 110.12817 35164 ft 491 kts 133°
2026-04-24 00:51 33.09669 110.19065 35165 ft 491 kts 133°
2026-04-24 00:51 33.05326 110.25281 35162 ft 490 kts 133°
2026-04-24 00:52 33.00966 110.31512 35155 ft 491 kts 133°
2026-04-24 00:52 32.96582 110.37761 35159 ft 491 kts 133°
2026-04-24 00:53 32.92236 110.43950 35161 ft 493 kts 133°
2026-04-24 00:53 32.87820 110.50227 35156 ft 493 kts 134°
2026-04-24 00:54 32.83448 110.56431 35150 ft 493 kts 134°
2026-04-24 00:54 32.79030 110.62691 35143 ft 494 kts 134°
2026-04-24 00:55 32.74616 110.68934 35135 ft 494 kts 135°
2026-04-24 00:55 32.70222 110.75137 35158 ft 494 kts 135°
2026-04-24 00:56 32.65780 110.81394 35165 ft 495 kts 135°
2026-04-24 00:56 32.61359 110.87613 35151 ft 495 kts 135°
2026-04-24 00:57 32.56804 110.93718 35143 ft 492 kts 140°
2026-04-24 00:58 32.49269 111.01839 35139 ft 489 kts 144°
2026-04-24 00:58 32.44160 111.07162 35151 ft 490 kts 144°
2026-04-24 00:59 32.39064 111.12480 35155 ft 491 kts 144°
2026-04-24 00:59 32.33957 111.17815 35146 ft 491 kts 144°
2026-04-24 01:00 32.28841 111.23151 35149 ft 493 kts 145°
2026-04-24 01:00 32.23689 111.28517 35153 ft 493 kts 145°
2026-04-24 01:01 32.18583 111.33828 35152 ft 493 kts 145°
2026-04-24 01:01 32.13438 111.39167 35152 ft 494 kts 145°
2026-04-24 01:02 32.08294 111.44496 35151 ft 494 kts 145°
2026-04-24 01:02 32.03140 111.49831 35157 ft 494 kts 146°
2026-04-24 01:03 31.97970 111.55173 35164 ft 495 kts 146°
2026-04-24 01:03 31.92803 111.60500 35164 ft 497 kts 146°
2026-04-24 01:04 31.87622 111.65840 35155 ft 496 kts 146°
2026-04-24 01:04 31.82418 111.71195 35151 ft 495 kts 146°
2026-04-24 01:05 31.77247 111.76503 35149 ft 495 kts 146°
2026-04-24 01:05 31.72072 111.81813 35147 ft 493 kts 146°
2026-04-24 01:06 31.66902 111.87098 35150 ft 495 kts 146°
2026-04-24 01:06 31.61706 111.92412 35145 ft 494 kts 146°
2026-04-24 01:07 31.56521 111.97701 35151 ft 496 kts 146°
2026-04-24 01:07 31.51308 112.03015 35149 ft 498 kts 146°
2026-04-24 01:08 31.46105 112.08308 35159 ft 497 kts 147°
2026-04-24 01:08 31.41032 112.13839 35164 ft 502 kts 140°
2026-04-24 01:09 31.36513 112.20077 35166 ft 509 kts 133°
2026-04-24 01:09 31.32269 112.26713 35165 ft 509 kts 133°
2026-04-24 01:10 31.28032 112.33334 35159 ft 510 kts 133°
2026-04-24 01:10 31.23779 112.39936 35161 ft 509 kts 133°
2026-04-24 01:11 31.19526 112.46513 35169 ft 510 kts 133°
2026-04-24 01:11 31.15301 112.53033 35164 ft 511 kts 133°
2026-04-24 01:12 31.11015 112.59637 35168 ft 510 kts 133°
2026-04-24 01:12 31.06744 112.66203 35160 ft 510 kts 133°
2026-04-24 01:13 31.02479 112.72752 35162 ft 509 kts 133°
2026-04-24 01:13 30.98194 112.79317 35149 ft 509 kts 133°
2026-04-24 01:14 30.93915 112.85864 35142 ft 508 kts 133°
2026-04-24 01:14 30.89635 112.92403 35159 ft 509 kts 133°
2026-04-24 01:15 30.85360 112.98924 35157 ft 507 kts 133°
2026-04-24 01:15 30.81080 113.05448 35151 ft 508 kts 132°
2026-04-24 01:16 30.77553 113.12669 35155 ft 521 kts 116°
2026-04-24 01:16 30.75684 113.20810 35159 ft 529 kts 99°
2026-04-24 01:17 30.75537 113.29375 35157 ft 531 kts 88°
2026-04-24 01:17 30.75880 113.37933 35171 ft 532 kts 88°
2026-04-24 01:18 30.76158 113.46486 35166 ft 532 kts 89°
2026-04-24 01:18 30.76378 113.55049 35176 ft 532 kts 89°
2026-04-24 01:19 30.76579 113.63620 35170 ft 532 kts 89°
2026-04-24 01:19 30.76772 113.72188 35161 ft 533 kts 89°
2026-04-24 01:20 30.76964 113.80763 35167 ft 533 kts 90°
2026-04-24 01:20 30.77146 113.89323 35176 ft 533 kts 89°
2026-04-24 01:21 30.77325 113.97947 35173 ft 533 kts 89°
2026-04-24 01:21 30.77565 114.06520 35166 ft 534 kts 88°
2026-04-24 01:22 30.78119 114.15086 35158 ft 534 kts 83°
2026-04-24 01:22 30.79535 114.23573 35171 ft 534 kts 73°
2026-04-24 01:23 30.81863 114.31736 35160 ft 533 kts 67°
2026-04-24 01:23 30.84051 114.39945 35165 ft 536 kts 81°
2026-04-24 01:23 30.84302 114.44235 35160 ft 534 kts 93°
2026-04-24 01:24 30.83910 114.48500 35158 ft 530 kts 104°
2026-04-24 01:24 30.82921 114.52544 35153 ft 524 kts 115°
2026-04-24 01:24 30.81374 114.56338 35345 ft 517 kts 126°
2026-04-24 01:24 30.79498 114.59898 35093 ft 513 kts 129°
2026-04-24 01:25 30.77558 114.63375 35294 ft 514 kts 129°
2026-04-24 01:25 30.73710 114.70345 35181 ft 513 kts 129°
2026-04-24 01:26 30.69934 114.77352 35164 ft 514 kts 129°
2026-04-24 01:26 30.66181 114.84389 35151 ft 513 kts 129°
2026-04-24 01:27 30.62436 114.91403 35156 ft 514 kts 129°
2026-04-24 01:27 30.58684 114.98416 35161 ft 513 kts 129°
2026-04-24 01:28 30.54907 115.05466 35159 ft 514 kts 129°
2026-04-24 01:28 30.51153 115.12458 35158 ft 513 kts 129°
2026-04-24 01:29 30.47297 115.19388 35159 ft 509 kts 134°
2026-04-24 01:29 30.42563 115.25223 35161 ft 490 kts 150°
2026-04-24 01:30 30.37000 115.29479 35164 ft 471 kts 163°
2026-04-24 01:30 30.31039 115.32324 35166 ft 461 kts 170°
2026-04-24 01:31 30.25026 115.34924 35167 ft 459 kts 170°
2026-04-24 01:31 30.19072 115.37530 35167 ft 459 kts 170°
2026-04-24 01:32 30.13126 115.40152 35167 ft 459 kts 170°
2026-04-24 01:32 30.07123 115.42806 35167 ft 459 kts 170°
2026-04-24 01:33 30.01179 115.45432 35167 ft 458 kts 170°
2026-04-24 01:33 29.95236 115.48055 35167 ft 457 kts 170°
2026-04-24 01:34 29.89307 115.50666 35169 ft 455 kts 170°
2026-04-24 01:34 29.83372 115.53275 35166 ft 456 kts 170°
2026-04-24 01:35 29.77424 115.55891 35166 ft 458 kts 170°
2026-04-24 01:35 29.71470 115.58501 35167 ft 458 kts 170°
2026-04-24 01:36 29.65531 115.61104 35171 ft 456 kts 170°
2026-04-24 01:36 29.59600 115.63695 35171 ft 456 kts 170°
2026-04-24 01:37 29.53688 115.66286 35169 ft 455 kts 171°
2026-04-24 01:37 29.47780 115.68871 35171 ft 455 kts 171°
2026-04-24 01:38 29.41858 115.71460 35172 ft 455 kts 171°
2026-04-24 01:38 29.35937 115.74041 35172 ft 456 kts 171°
2026-04-24 01:39 29.29987 115.76362 35172 ft 449 kts 174°
2026-04-24 01:39 29.24021 115.78449 35172 ft 450 kts 174°
2026-04-24 01:40 29.18051 115.80534 35173 ft 449 kts 174°
2026-04-24 01:40 29.12074 115.82624 35173 ft 448 kts 175°
2026-04-24 01:41 29.06085 115.84779 35172 ft 452 kts 173°
2026-04-24 01:41 29.00143 115.87022 35170 ft 450 kts 173°
2026-04-24 01:42 28.94204 115.89247 35174 ft 449 kts 173°
2026-04-24 01:42 28.88232 115.91470 35173 ft 449 kts 174°
2026-04-24 01:43 28.82262 115.93578 35173 ft 447 kts 175°
2026-04-24 01:43 28.76344 115.95631 35173 ft 447 kts 175°
2026-04-24 01:44 28.70401 115.97695 35171 ft 445 kts 175°
2026-04-24 01:44 28.64435 115.99769 35173 ft 446 kts 175°
2026-04-24 01:45 28.58531 116.01822 35172 ft 446 kts 175°
2026-04-24 01:45 28.52611 116.03877 35172 ft 445 kts 175°
2026-04-24 01:46 28.46694 116.05930 35168 ft 444 kts 175°
2026-04-24 01:46 28.40773 116.07980 35173 ft 444 kts 175°
2026-04-24 01:47 28.34857 116.10029 35170 ft 443 kts 175°
2026-04-24 01:47 28.28975 116.12063 35169 ft 444 kts 175°
2026-04-24 01:48 28.23066 116.14011 35161 ft 435 kts 181°
2026-04-24 01:48 28.20114 116.14432 35168 ft 422 kts 188°
2026-04-24 01:48 28.17188 116.14598 35172 ft 420 kts 190°
2026-04-24 01:49 28.11372 116.14872 35166 ft 417 kts 190°
2026-04-24 01:49 28.05566 116.15160 35174 ft 417 kts 189°
2026-04-24 01:50 27.99754 116.15465 35159 ft 417 kts 190°
2026-04-24 01:50 27.93951 116.15769 35169 ft 416 kts 190°
2026-04-24 01:51 27.88191 116.16077 35168 ft 416 kts 190°
2026-04-24 01:51 27.82389 116.16385 35165 ft 418 kts 190°
2026-04-24 01:52 27.76572 116.16693 35162 ft 418 kts 190°
2026-04-24 01:52 27.70787 116.17004 35163 ft 418 kts 190°
2026-04-24 01:53 27.64987 116.17313 35158 ft 417 kts 190°
2026-04-24 01:53 27.59144 116.17623 35164 ft 419 kts 190°
2026-04-24 01:54 27.53379 116.17930 35161 ft 416 kts 190°
2026-04-24 01:54 27.47559 116.18239 35163 ft 416 kts 190°
2026-04-24 01:55 27.41802 116.18543 35164 ft 415 kts 190°
2026-04-24 01:55 27.36034 116.18849 35162 ft 416 kts 190°
2026-04-24 01:56 27.30249 116.19154 35170 ft 415 kts 190°
2026-04-24 01:56 27.24433 116.19461 35168 ft 415 kts 190°
2026-04-24 01:57 27.18656 116.19767 35168 ft 414 kts 190°
2026-04-24 01:57 27.12913 116.20067 35161 ft 416 kts 190°
2026-04-24 01:58 27.07299 116.20361 35171 ft 414 kts 190°
2026-04-24 01:58 27.01472 116.20673 35162 ft 417 kts 190°
2026-04-24 01:59 26.95648 116.21344 35161 ft 427 kts 184°
2026-04-24 01:59 26.89748 116.22739 35173 ft 440 kts 178°
2026-04-24 02:00 26.83863 116.24929 35121 ft 451 kts 172°
2026-04-24 02:00 26.80967 116.26276 34866 ft 455 kts 171°
2026-04-24 02:00 26.78064 116.27656 34583 ft 454 kts 170°
2026-04-24 02:00 26.75143 116.29049 34315 ft 453 kts 170°
2026-04-24 02:01 26.72276 116.30415 34036 ft 451 kts 170°
2026-04-24 02:01 26.69372 116.31795 33761 ft 452 kts 170°
2026-04-24 02:01 26.66481 116.33167 33501 ft 451 kts 170°
2026-04-24 02:01 26.63594 116.34538 33227 ft 450 kts 170°
2026-04-24 02:02 26.60733 116.35892 32972 ft 448 kts 170°
2026-04-24 02:02 26.57843 116.37260 32722 ft 446 kts 170°
2026-04-24 02:02 26.54988 116.38611 32473 ft 444 kts 170°
2026-04-24 02:02 26.52153 116.39950 32213 ft 442 kts 169°
2026-04-24 02:03 26.46532 116.42606 31699 ft 438 kts 169°
2026-04-24 02:03 26.43728 116.43927 31456 ft 436 kts 169°
2026-04-24 02:03 26.40936 116.45243 31208 ft 435 kts 169°
2026-04-24 02:04 26.38165 116.46550 30959 ft 433 kts 169°
2026-04-24 02:04 26.35392 116.47857 30704 ft 430 kts 169°
2026-04-24 02:04 26.32614 116.49165 30452 ft 428 kts 169°
2026-04-24 02:04 26.29891 116.50446 30205 ft 426 kts 169°
2026-04-24 02:05 26.27174 116.51721 29951 ft 424 kts 168°
2026-04-24 02:05 26.24454 116.53001 29698 ft 422 kts 168°
2026-04-24 02:05 26.21763 116.54265 29442 ft 420 kts 168°
2026-04-24 02:05 26.19055 116.55537 29191 ft 417 kts 168°
2026-04-24 02:06 26.16410 116.56778 28932 ft 415 kts 168°
2026-04-24 02:06 26.13740 116.58029 28672 ft 414 kts 168°
2026-04-24 02:06 26.11101 116.59265 28421 ft 412 kts 168°
2026-04-24 02:06 26.08443 116.60511 28159 ft 411 kts 168°
2026-04-24 02:07 26.05829 116.61736 27904 ft 409 kts 168°
2026-04-24 02:07 26.03200 116.62966 27652 ft 410 kts 168°
2026-04-24 02:07 26.00591 116.64187 27402 ft 408 kts 168°
2026-04-24 02:07 25.97968 116.65414 27144 ft 406 kts 168°
2026-04-24 02:08 25.95362 116.66631 26891 ft 405 kts 168°
2026-04-24 02:08 25.92767 116.67844 26650 ft 403 kts 168°
2026-04-24 02:08 25.90168 116.69059 26584 ft 404 kts 168°
2026-04-24 02:08 25.87580 116.70268 26575 ft 404 kts 167°
2026-04-24 02:09 25.84983 116.71481 26571 ft 404 kts 167°
2026-04-24 02:09 25.82398 116.72684 26566 ft 404 kts 167°
2026-04-24 02:09 25.79793 116.73898 26563 ft 404 kts 167°
2026-04-24 02:09 25.77214 116.75099 26560 ft 404 kts 167°
2026-04-24 02:10 25.74628 116.76305 26562 ft 404 kts 167°
2026-04-24 02:10 25.72043 116.77508 26558 ft 404 kts 167°
2026-04-24 02:10 25.69431 116.78724 26553 ft 404 kts 167°
2026-04-24 02:10 25.66835 116.79932 26559 ft 403 kts 167°
2026-04-24 02:11 25.64253 116.81131 26562 ft 402 kts 167°
2026-04-24 02:11 25.61702 116.82316 26558 ft 403 kts 167°
2026-04-24 02:11 25.59076 116.83535 26559 ft 403 kts 167°
2026-04-24 02:11 25.56502 116.84729 26562 ft 404 kts 167°
2026-04-24 02:12 25.53906 116.85934 26491 ft 405 kts 167°
2026-04-24 02:12 25.51328 116.87130 26237 ft 402 kts 167°
2026-04-24 02:12 25.48758 116.88322 25984 ft 400 kts 167°
2026-04-24 02:12 25.46177 116.89516 25732 ft 399 kts 167°
2026-04-24 02:13 25.43616 116.90701 25483 ft 400 kts 167°
2026-04-24 02:13 25.41050 116.91890 25237 ft 399 kts 167°
2026-04-24 02:13 25.38499 116.93070 24980 ft 396 kts 167°
2026-04-24 02:13 25.35957 116.94247 24732 ft 396 kts 167°
2026-04-24 02:14 25.33423 116.95417 24482 ft 396 kts 167°
2026-04-24 02:14 25.30883 116.96592 24237 ft 395 kts 167°
2026-04-24 02:14 25.28330 116.97772 23982 ft 393 kts 166°
2026-04-24 02:14 25.25820 116.98929 23741 ft 393 kts 166°
2026-04-24 02:15 25.23284 117.00098 23487 ft 392 kts 166°
2026-04-24 02:15 25.20779 117.01253 23252 ft 391 kts 166°
2026-04-24 02:15 25.18268 117.02411 23009 ft 391 kts 166°
2026-04-24 02:15 25.15752 117.03570 22766 ft 391 kts 166°
2026-04-24 02:16 25.13256 117.04719 22523 ft 390 kts 166°
2026-04-24 02:16 25.10755 117.05868 22292 ft 389 kts 165°
2026-04-24 02:16 25.08252 117.07020 22053 ft 389 kts 165°
2026-04-24 02:16 25.05771 117.08163 21828 ft 387 kts 165°
2026-04-24 02:17 25.03274 117.09311 21594 ft 386 kts 165°
2026-04-24 02:17 25.00805 117.10446 21360 ft 385 kts 165°
2026-04-24 02:17 24.98342 117.11578 21127 ft 383 kts 165°
2026-04-24 02:17 24.95884 117.12707 20894 ft 382 kts 165°
2026-04-24 02:18 24.93414 117.13841 20664 ft 381 kts 164°
2026-04-24 02:18 24.90985 117.14955 20435 ft 380 kts 164°
2026-04-24 02:18 24.88532 117.16080 20200 ft 379 kts 164°
2026-04-24 02:18 24.86090 117.17199 19967 ft 378 kts 164°
2026-04-24 02:19 24.83682 117.18301 19736 ft 377 kts 163°
2026-04-24 02:19 24.81269 117.19405 19501 ft 376 kts 163°
2026-04-24 02:19 24.78853 117.20512 19267 ft 374 kts 163°
2026-04-24 02:19 24.76451 117.21612 19031 ft 373 kts 163°
2026-04-24 02:20 24.74060 117.22706 18793 ft 373 kts 163°
2026-04-24 02:20 24.71646 117.23811 18555 ft 372 kts 163°
2026-04-24 02:20 24.69258 117.24902 18317 ft 371 kts 162°
2026-04-24 02:20 24.66889 117.25983 18073 ft 367 kts 162°
2026-04-24 02:21 24.64530 117.27064 17748 ft 360 kts 162°
2026-04-24 02:21 24.62239 117.28113 17432 ft 354 kts 162°
2026-04-24 02:21 24.59993 117.29139 17128 ft 348 kts 162°
2026-04-24 02:21 24.57783 117.30148 16822 ft 342 kts 162°
2026-04-24 02:22 24.55600 117.31142 16520 ft 337 kts 162°
2026-04-24 02:22 24.53433 117.32130 16222 ft 331 kts 162°
2026-04-24 02:22 24.51320 117.33093 15983 ft 329 kts 162°
2026-04-24 02:22 24.49198 117.34057 15757 ft 329 kts 162°
2026-04-24 02:23 24.47074 117.35023 15507 ft 329 kts 162°
2026-04-24 02:23 24.44972 117.35978 15182 ft 328 kts 162°
2026-04-24 02:23 24.42861 117.36938 14818 ft 327 kts 161°
2026-04-24 02:23 24.40752 117.37897 14429 ft 326 kts 161°
2026-04-24 02:24 24.38671 117.38843 14030 ft 326 kts 161°
2026-04-24 02:24 24.36575 117.39796 13705 ft 322 kts 161°
2026-04-24 02:24 24.34511 117.40736 13354 ft 321 kts 161°
2026-04-24 02:24 24.32434 117.41678 12930 ft 322 kts 161°
2026-04-24 02:25 24.30378 117.42610 12639 ft 317 kts 161°
2026-04-24 02:25 24.28373 117.43523 12310 ft 315 kts 161°
2026-04-24 02:25 24.26360 117.44437 11949 ft 313 kts 161°
2026-04-24 02:25 24.24347 117.45348 11588 ft 310 kts 161°
2026-04-24 02:26 24.22356 117.46249 11294 ft 306 kts 161°
2026-04-24 02:26 24.20388 117.47143 11000 ft 300 kts 161°
2026-04-24 02:26 24.18523 117.48080 10563 ft 294 kts 149°
2026-04-24 02:26 24.17160 117.49676 10161 ft 290 kts 117°
2026-04-24 02:27 24.16643 117.51793 9978 ft 291 kts 90°
2026-04-24 02:27 24.17036 117.53934 9634 ft 287 kts 61°
2026-04-24 02:27 24.18192 117.55660 9337 ft 278 kts 43°
2026-04-24 02:27 24.19514 117.57152 9095 ft 272 kts 43°
2026-04-24 02:28 24.20823 117.58626 8850 ft 268 kts 43°
2026-04-24 02:28 24.22108 117.60102 8599 ft 264 kts 44°
2026-04-24 02:28 24.23360 117.61567 8352 ft 260 kts 44°
2026-04-24 02:28 24.24578 117.63009 8121 ft 257 kts 44°
2026-04-24 02:29 24.25783 117.64446 7889 ft 253 kts 45°
2026-04-24 02:29 24.26953 117.65844 7639 ft 250 kts 45°
2026-04-24 02:29 24.28121 117.67242 7384 ft 247 kts 46°
2026-04-24 02:29 24.29287 117.68639 7111 ft 246 kts 46°
2026-04-24 02:30 24.30428 117.70007 6835 ft 244 kts 46°
2026-04-24 02:30 24.31575 117.71387 6566 ft 243 kts 46°
2026-04-24 02:30 24.32699 117.72736 6307 ft 241 kts 46°
2026-04-24 02:30 24.33827 117.74093 6037 ft 239 kts 46°
2026-04-24 02:31 24.34941 117.75433 5768 ft 237 kts 47°
2026-04-24 02:31 24.36044 117.76759 5512 ft 234 kts 47°
2026-04-24 02:31 24.37135 117.78072 5311 ft 228 kts 46°
2026-04-24 02:31 24.38194 117.79346 5127 ft 222 kts 46°
2026-04-24 02:32 24.39201 117.80566 5026 ft 213 kts 50°
2026-04-24 02:32 24.39874 117.81984 4893 ft 210 kts 77°
2026-04-24 02:32 24.40049 117.83572 4643 ft 208 kts 85°
2026-04-24 02:32 24.40130 117.85104 4449 ft 200 kts 85°
2026-04-24 02:33 24.40211 117.86608 4229 ft 194 kts 85°
2026-04-24 02:33 24.40302 117.88070 3969 ft 191 kts 84°
2026-04-24 02:33 24.40401 117.89494 3696 ft 188 kts 84°
2026-04-24 02:33 24.40504 117.90923 3437 ft 186 kts 83°
2026-04-24 02:34 24.40645 117.92312 3174 ft 181 kts 77°
2026-04-24 02:34 24.41034 117.93594 2929 ft 176 kts 64°
2026-04-24 02:34 24.41611 117.94715 2866 ft 159 kts 56°
2026-04-24 02:34 24.42218 117.95655 2855 ft 144 kts 52°
2026-04-24 02:35 24.42823 117.96517 2881 ft 144 kts 51°
2026-04-24 02:35 24.43444 117.97388 2889 ft 142 kts 51°
2026-04-24 02:35 24.44045 117.98231 2892 ft 142 kts 51°
2026-04-24 02:35 24.44650 117.99078 2806 ft 141 kts 51°
2026-04-24 02:36 24.45249 117.99918 2648 ft 139 kts 51°
2026-04-24 02:36 24.45832 118.00736 2468 ft 132 kts 52°
2026-04-24 02:36 24.46391 118.01521 2289 ft 130 kts 51°
2026-04-24 02:36 24.46949 118.02305 2121 ft 130 kts 51°
2026-04-24 02:37 24.47504 118.03082 1950 ft 129 kts 51°
2026-04-24 02:37 24.48058 118.03859 1779 ft 129 kts 51°
2026-04-24 02:37 24.48610 118.04633 1613 ft 129 kts 51°
2026-04-24 02:37 24.49166 118.05412 1443 ft 128 kts 51°
2026-04-24 02:38 24.49718 118.06185 1274 ft 128 kts 52°
2026-04-24 02:38 24.50261 118.06946 1111 ft 127 kts 51°
2026-04-24 02:38 24.50809 118.07713 944 ft 127 kts 51°
2026-04-24 02:38 24.51351 118.08472 774 ft 127 kts 52°
2026-04-24 02:39 24.51903 118.09232 601 ft 127 kts 52°
2026-04-24 02:39 24.52449 118.09983 431 ft 126 kts 52°
2026-04-24 02:39 24.52984 118.10751 255 ft 125 kts 52°
2026-04-24 02:39 24.53522 118.11504 114 ft 124 kts 52°
2026-04-24 02:40 24.54021 118.12201 71 ft 97 kts 54°
2026-04-24 02:40 24.54281 118.12564 70 ft 35 kts 52°
2026-04-24 02:40 24.54451 118.12827 70 ft 42 kts 64°
2026-04-24 02:40 24.54522 118.13029 70 ft 12 kts 77°
2026-04-24 02:41 24.54524 118.13041 70 ft 0 kts 76°
2026-04-24 02:42 24.54524 118.13042 70 ft 0 kts 76°
2026-04-24 02:43 24.54531 118.13077 70 ft 8 kts 82°
2026-04-24 02:43 24.54506 118.13140 70 ft 11 kts 171°
2026-04-24 02:43 24.54444 118.13098 70 ft 11 kts 230°
2026-04-24 02:43 24.54382 118.13013 70 ft 16 kts 232°
2026-04-24 02:44 24.54300 118.12897 71 ft 21 kts 232°
2026-04-24 02:44 24.54211 118.12771 71 ft 20 kts 230°
2026-04-24 02:44 24.54110 118.12631 71 ft 26 kts 232°
2026-04-24 02:44 24.54012 118.12515 71 ft 14 kts 193°
2026-04-24 02:45 24.53928 118.12564 71 ft 15 kts 141°
2026-04-24 02:45 24.53846 118.12621 71 ft 8 kts 143°
2026-04-24 02:45 24.53828 118.12636 71 ft 0 kts 142°
2026-04-24 02:45 24.53827 118.12637 71 ft 0 kts 142°